Terug naar catalogus

USA 40 R/B DEB

ActiefUNKNOWN
NORAD 23359·DEBRIS·🇺🇸 United States

Gelanceerd Aug 8, 1989 vanaf Cape Canaveral Space Force Station

Loading…

Volgende Passages (komende 24 uur)

TLE

VersSource: Space-Track

Epoch: Sep 13, 2026, 11:58 UTC

1 23359U 89061AF  26256.49871048  .00004061  00000-0  21500-2 0  9999
2 23359  56.8863 292.0548 2128977 104.2790 280.2409 10.59954925278987

Volg USA 40 R/B DEB in realtime met AllMySat

Download on the App Store